Flag for South Africa Weather past 2 weeks in Stellenbosch, South Africa

Now
52 °F

Clear.


Feels Like: 49 °F
Forecast: 47 / 68 °F
Wind: 7 mph from Northeast

Location: Cape Town International Airport

Current Time: Aug 1, 2014 at 7:29:55 AM

Latest Report: Aug 1, 2014 at 7:00 AM


Visibility: 4 mi

Pressure: 30.07 "Hg

Humidity: 94%

Dew point: 50 °F

Location of StellenboschLocation

Historic Weather in Stellenbosch — Graph

°F

Stellenbosch temperature yesterday

Maximum temperature yesterday: 68 °F (at 2:00 PM)
Minimum temperature yesterday: 50 °F (at 7:00 AM)
Average temperature yesterday: 59 °F

Past Weeks' High & Low Weather Summary

 TemperatureHumidityPressure
High68 °F (Jul 23, 2:00 PM)100% (Jul 23, 6:00 AM)30.51 "Hg (Jul 23, 6:00 AM)
Low37 °F (Jul 21, 4:00 AM)37% (Jul 21, 3:00 PM)29.74 "Hg (Jul 17, 8:00 AM)
Average56 °F80%30.15 "Hg
* Reported Jul 17 6:00 AM — Aug 1 6:00 AM, Stellenbosch, Weather by CustomWeather, © 2014

Note: Actual official high and low records may vary slightly from our data, if they occured in-between our weather recording intervals... More about our weather records

Advertising

Stellenbosch weather history for previous 24 hours

 ConditionsComfort  
Time TempWeatherWind HumidityBarometerVisibility
6:00 AM
Aug 1
52 °FClear.6 mph94%30.07 "Hg10 mi
5:00 AM54 °FClear.8 mph94%30.07 "Hg10 mi
4:00 AM52 °FClear.5 mph88%30.07 "Hg10 mi
3:00 AM54 °FClear.5 mph88%30.07 "Hg10 mi
2:00 AM54 °FClear.2 mph94%30.07 "Hg10 mi
1:00 AM52 °FClear.2 mph94%30.07 "Hg10 mi
12:00 AM55 °FPassing clouds.3 mph88%30.07 "HgN/A
11:00 PM
Jul 31
55 °FClear.6 mph88%30.07 "Hg10 mi
10:00 PM59 °FClear.7 mph82%30.04 "Hg10 mi
9:00 PM61 °FClear.7 mph77%30.04 "Hg10 mi
8:00 PM61 °FPassing clouds.6 mph83%30.04 "HgN/A
7:00 PM61 °FClear.8 mph83%30.01 "Hg10 mi
6:00 PM61 °FClear.8 mph83%30.01 "Hg10 mi
5:00 PM64 °FSunny.7 mph78%30.01 "Hg10 mi
3:00 PM68 °FPassing clouds.8 mph64%30.01 "HgN/A
2:00 PM68 °FPassing clouds.12 mph64%30.04 "HgN/A
1:00 PM66 °FPassing clouds.6 mph73%30.04 "HgN/A
12:00 PM66 °FPassing clouds.3 mph73%30.07 "HgN/A
11:00 AM63 °FPassing clouds.5 mph77%30.07 "HgN/A
10:00 AM59 °FClear.6 mph88%30.07 "Hg4 mi
9:00 AM57 °FClear.5 mph94%30.07 "Hg4 mi
8:00 AM50 °FSleet. Fog.1 mph94%30.07 "Hg5 mi
7:00 AM50 °FClear.1 mph94%30.07 "Hg4 mi
Weather by CustomWeather, © 2014

See weather overviewHow to use our weather pages